Year,Month,Day,Hour,Minute,Value (Times are PST for temperature in C)
2012,07,14,00,00,12.30
2012,07,14,00,01,12.30
2012,07,14,00,02,12.30
2012,07,14,00,03,12.30
2012,07,14,00,04,12.30
2012,07,14,00,05,12.30
2012,07,14,00,06,12.30
2012,07,14,00,07,12.20
2012,07,14,00,08,12.10
2012,07,14,00,09,12.00
2012,07,14,00,10,12.00
2012,07,14,00,11,12.00
2012,07,14,00,12,11.90
2012,07,14,00,13,11.90
2012,07,14,00,14,11.90
2012,07,14,00,15,11.90
2012,07,14,00,16,11.90
2012,07,14,00,17,12.00
2012,07,14,00,18,12.00
2012,07,14,00,19,12.00
2012,07,14,00,20,12.00
2012,07,14,00,21,12.10
2012,07,14,00,22,12.10
2012,07,14,00,23,12.10
2012,07,14,00,24,12.10
2012,07,14,00,25,12.10
2012,07,14,00,26,12.00
2012,07,14,00,27,12.00
2012,07,14,00,28,11.90
2012,07,14,00,29,11.80
2012,07,14,00,30,11.80
2012,07,14,00,31,11.70
2012,07,14,00,32,11.70
2012,07,14,00,33,11.60
2012,07,14,00,34,11.60
2012,07,14,00,35,11.60
2012,07,14,00,36,11.60
2012,07,14,00,37,11.60
2012,07,14,00,38,11.60
2012,07,14,00,39,11.60
2012,07,14,00,40,11.60
2012,07,14,00,41,11.60
2012,07,14,00,42,11.60
2012,07,14,00,43,11.60
2012,07,14,00,44,11.60
2012,07,14,00,45,11.60
2012,07,14,00,46,11.60
2012,07,14,00,47,11.60
2012,07,14,00,48,11.60
2012,07,14,00,49,11.60
2012,07,14,00,50,11.70
2012,07,14,00,51,11.70
2012,07,14,00,52,11.70
2012,07,14,00,53,11.70
2012,07,14,00,54,11.70
2012,07,14,00,55,11.70
2012,07,14,00,56,11.70
2012,07,14,00,57,11.70
2012,07,14,00,58,11.70
2012,07,14,00,59,11.70
2012,07,14,01,00,11.70
2012,07,14,01,01,11.70
2012,07,14,01,02,11.70
2012,07,14,01,03,11.70
2012,07,14,01,04,11.70
2012,07,14,01,05,11.70
2012,07,14,01,06,11.70
2012,07,14,01,07,11.70
2012,07,14,01,08,11.80
2012,07,14,01,09,11.80
2012,07,14,01,10,11.80
2012,07,14,01,11,11.80
2012,07,14,01,12,11.80
2012,07,14,01,13,11.80
2012,07,14,01,14,11.90
2012,07,14,01,15,11.90
2012,07,14,01,16,11.90
2012,07,14,01,17,11.90
2012,07,14,01,18,11.90
2012,07,14,01,19,11.90
2012,07,14,01,20,12.00
2012,07,14,01,21,12.00
2012,07,14,01,22,12.00
2012,07,14,01,23,12.00
2012,07,14,01,24,12.00
2012,07,14,01,25,12.00
2012,07,14,01,26,12.00
2012,07,14,01,27,12.00
2012,07,14,01,28,12.00
2012,07,14,01,29,12.00
2012,07,14,01,30,12.00
2012,07,14,01,31,12.10
2012,07,14,01,32,12.10
2012,07,14,01,33,12.10
2012,07,14,01,34,12.10
2012,07,14,01,35,12.10
2012,07,14,01,36,12.10
2012,07,14,01,37,12.10
2012,07,14,01,38,12.10
2012,07,14,01,39,12.10
2012,07,14,01,40,12.10
2012,07,14,01,41,12.10
2012,07,14,01,42,12.10
2012,07,14,01,43,12.00
2012,07,14,01,44,12.00
2012,07,14,01,45,12.00
2012,07,14,01,46,11.90
2012,07,14,01,47,11.90
2012,07,14,01,48,11.90
2012,07,14,01,49,11.90
2012,07,14,01,50,11.80
2012,07,14,01,51,11.80
2012,07,14,01,52,11.80
2012,07,14,01,53,11.80
2012,07,14,01,54,11.80
2012,07,14,01,55,11.70
2012,07,14,01,56,11.70
2012,07,14,01,57,11.70
2012,07,14,01,58,11.70
2012,07,14,01,59,11.60
2012,07,14,02,00,11.60
2012,07,14,02,01,11.60
2012,07,14,02,02,11.50
2012,07,14,02,03,11.50
2012,07,14,02,04,11.40
2012,07,14,02,05,11.40
2012,07,14,02,06,11.40
2012,07,14,02,07,11.40
2012,07,14,02,08,11.40
2012,07,14,02,09,11.30
2012,07,14,02,10,11.30
2012,07,14,02,11,11.30
2012,07,14,02,12,11.30
2012,07,14,02,13,11.30
2012,07,14,02,14,11.30
2012,07,14,02,15,11.30
2012,07,14,02,16,11.30
2012,07,14,02,17,11.30
2012,07,14,02,18,11.30
2012,07,14,02,19,11.30
2012,07,14,02,20,11.30
2012,07,14,02,21,11.30
2012,07,14,02,22,11.30
2012,07,14,02,23,11.30
2012,07,14,02,24,11.30
2012,07,14,02,25,11.30
2012,07,14,02,26,11.30
2012,07,14,02,27,11.30
2012,07,14,02,28,11.30
2012,07,14,02,29,11.30
2012,07,14,02,30,11.30
2012,07,14,02,31,11.30
2012,07,14,02,32,11.30
2012,07,14,02,33,11.30
2012,07,14,02,34,11.30
2012,07,14,02,35,11.30
2012,07,14,02,36,11.30
2012,07,14,02,37,11.30
2012,07,14,02,38,11.30
2012,07,14,02,39,11.30
2012,07,14,02,40,11.30
2012,07,14,02,41,11.30
2012,07,14,02,42,11.30
2012,07,14,02,43,11.30
2012,07,14,02,44,11.30
2012,07,14,02,45,11.30
2012,07,14,02,46,11.40
2012,07,14,02,47,11.40
2012,07,14,02,48,11.40
2012,07,14,02,49,11.40
2012,07,14,02,50,11.40
2012,07,14,02,51,11.40
2012,07,14,02,52,11.40
2012,07,14,02,53,11.40
2012,07,14,02,54,11.40
2012,07,14,02,55,11.40
2012,07,14,02,56,11.40
2012,07,14,02,57,11.50
2012,07,14,02,58,11.50
2012,07,14,02,59,11.50
2012,07,14,03,00,11.50
2012,07,14,03,01,11.50
2012,07,14,03,02,11.60
2012,07,14,03,03,11.60
2012,07,14,03,04,11.60
2012,07,14,03,05,11.60
2012,07,14,03,06,11.60
2012,07,14,03,07,11.60
2012,07,14,03,08,11.60
2012,07,14,03,09,11.60
2012,07,14,03,10,11.60
2012,07,14,03,11,11.60
2012,07,14,03,12,11.60
2012,07,14,03,13,11.60
2012,07,14,03,14,11.60
2012,07,14,03,15,11.50
2012,07,14,03,16,11.50
2012,07,14,03,17,11.50
2012,07,14,03,18,11.50
2012,07,14,03,19,11.50
2012,07,14,03,20,11.50
2012,07,14,03,21,11.50
2012,07,14,03,22,11.50
2012,07,14,03,23,11.50
2012,07,14,03,24,11.40
2012,07,14,03,25,11.40
2012,07,14,03,26,11.40
2012,07,14,03,27,11.40
2012,07,14,03,28,11.40
2012,07,14,03,29,11.40
2012,07,14,03,30,11.40
2012,07,14,03,31,11.40
2012,07,14,03,32,11.40
2012,07,14,03,33,11.40
2012,07,14,03,34,11.40
2012,07,14,03,35,11.40
2012,07,14,03,36,11.40
2012,07,14,03,37,11.40
2012,07,14,03,38,11.40
2012,07,14,03,39,11.40
2012,07,14,03,40,11.40
2012,07,14,03,41,11.40
2012,07,14,03,42,11.40
2012,07,14,03,43,11.40
2012,07,14,03,44,11.40
2012,07,14,03,45,11.40
2012,07,14,03,46,11.40
2012,07,14,03,47,11.40
2012,07,14,03,48,11.40
2012,07,14,03,49,11.40
2012,07,14,03,50,11.40
2012,07,14,03,51,11.40
2012,07,14,03,52,11.40
2012,07,14,03,53,11.40
2012,07,14,03,54,11.40
2012,07,14,03,55,11.40
2012,07,14,03,56,11.40
2012,07,14,03,57,11.40
2012,07,14,03,58,11.40
2012,07,14,03,59,11.40
2012,07,14,04,00,11.40
2012,07,14,04,01,11.40
2012,07,14,04,02,11.40
2012,07,14,04,03,11.40
2012,07,14,04,04,11.40
2012,07,14,04,05,11.40
2012,07,14,04,06,11.30
2012,07,14,04,07,11.30
2012,07,14,04,08,11.30
2012,07,14,04,09,11.20
2012,07,14,04,10,11.20
2012,07,14,04,11,11.20
2012,07,14,04,12,11.10
2012,07,14,04,13,11.10
2012,07,14,04,14,11.10
2012,07,14,04,15,11.10
2012,07,14,04,16,11.10
2012,07,14,04,17,11.00
2012,07,14,04,18,11.00
2012,07,14,04,19,11.00
2012,07,14,04,20,11.00
2012,07,14,04,21,11.00
2012,07,14,04,22,11.00
2012,07,14,04,23,10.90
2012,07,14,04,24,10.90
2012,07,14,04,25,10.90
2012,07,14,04,26,10.90
2012,07,14,04,27,10.90
2012,07,14,04,28,10.90
2012,07,14,04,29,10.90
2012,07,14,04,30,10.90
2012,07,14,04,31,10.90
2012,07,14,04,32,10.90
2012,07,14,04,33,10.90
2012,07,14,04,34,10.90
2012,07,14,04,35,10.90
2012,07,14,04,36,10.90
2012,07,14,04,37,10.90
2012,07,14,04,38,10.90
2012,07,14,04,39,10.90
2012,07,14,04,40,10.90
2012,07,14,04,41,10.80
2012,07,14,04,42,10.80
2012,07,14,04,43,10.80
2012,07,14,04,44,10.80
2012,07,14,04,45,10.80
2012,07,14,04,46,10.80
2012,07,14,04,47,10.80
2012,07,14,04,48,10.80
2012,07,14,04,49,10.80
2012,07,14,04,50,10.80
2012,07,14,04,51,10.80
2012,07,14,04,52,10.80
2012,07,14,04,53,10.80
2012,07,14,04,54,10.80
2012,07,14,04,55,10.80
2012,07,14,04,56,10.80
2012,07,14,04,57,10.80
2012,07,14,04,58,10.80
2012,07,14,04,59,10.70
2012,07,14,05,00,10.70
2012,07,14,05,01,10.70
2012,07,14,05,02,10.70
2012,07,14,05,03,10.70
2012,07,14,05,04,10.70
2012,07,14,05,05,10.70
2012,07,14,05,06,10.70
2012,07,14,05,07,10.70
2012,07,14,05,08,10.70
2012,07,14,05,09,10.70
2012,07,14,05,10,10.70
2012,07,14,05,11,10.70
2012,07,14,05,12,10.70
2012,07,14,05,13,10.70
2012,07,14,05,14,10.70
2012,07,14,05,15,10.80
2012,07,14,05,16,10.80
2012,07,14,05,17,10.80
2012,07,14,05,18,10.80
2012,07,14,05,19,10.80
2012,07,14,05,20,10.80
2012,07,14,05,21,10.80
2012,07,14,05,22,10.80
2012,07,14,05,23,10.80
2012,07,14,05,24,10.80
2012,07,14,05,25,10.80
2012,07,14,05,26,10.80
2012,07,14,05,27,10.80
2012,07,14,05,28,10.80
2012,07,14,05,29,10.80
2012,07,14,05,30,10.80
2012,07,14,05,31,10.80
2012,07,14,05,32,10.80
2012,07,14,05,33,10.80
2012,07,14,05,34,10.80
2012,07,14,05,35,10.80
2012,07,14,05,36,10.80
2012,07,14,05,37,10.80
2012,07,14,05,38,10.80
2012,07,14,05,39,10.80
2012,07,14,05,40,10.80
2012,07,14,05,41,10.80
2012,07,14,05,42,10.80
2012,07,14,05,43,10.80
2012,07,14,05,44,10.80
2012,07,14,05,45,10.80
2012,07,14,05,46,10.80
2012,07,14,05,47,10.80
2012,07,14,05,48,10.80
2012,07,14,05,49,10.80
2012,07,14,05,50,10.80
2012,07,14,05,51,10.80
2012,07,14,05,52,10.80
2012,07,14,05,53,10.80
2012,07,14,05,54,10.80
2012,07,14,05,55,10.80
2012,07,14,05,56,10.90
2012,07,14,05,57,10.90
2012,07,14,05,58,10.90
2012,07,14,05,59,10.90
2012,07,14,06,00,10.90
2012,07,14,06,01,10.90
2012,07,14,06,02,11.00
2012,07,14,06,03,11.00
2012,07,14,06,04,11.00
2012,07,14,06,05,11.00
2012,07,14,06,06,11.00
2012,07,14,06,07,11.10
2012,07,14,06,08,11.10
2012,07,14,06,09,11.10
2012,07,14,06,10,11.10
2012,07,14,06,11,11.10
2012,07,14,06,12,11.10
2012,07,14,06,13,11.10
2012,07,14,06,14,11.10
2012,07,14,06,15,11.10
2012,07,14,06,16,11.10
2012,07,14,06,17,11.10
2012,07,14,06,18,11.10
2012,07,14,06,19,11.10
2012,07,14,06,20,11.20
2012,07,14,06,21,11.20
2012,07,14,06,22,11.20
2012,07,14,06,23,11.20
2012,07,14,06,24,11.20
2012,07,14,06,25,11.20
2012,07,14,06,26,11.30
2012,07,14,06,27,11.30
2012,07,14,06,28,11.30
2012,07,14,06,29,11.30
2012,07,14,06,30,11.30
2012,07,14,06,31,11.30
2012,07,14,06,32,11.40
2012,07,14,06,33,11.40
2012,07,14,06,34,11.40
2012,07,14,06,35,11.50
2012,07,14,06,36,11.50
2012,07,14,06,37,11.50
2012,07,14,06,38,11.60
2012,07,14,06,39,11.60
2012,07,14,06,40,11.60
2012,07,14,06,41,11.70
2012,07,14,06,42,11.70
2012,07,14,06,43,11.70
2012,07,14,06,44,11.70
2012,07,14,06,45,11.80
2012,07,14,06,46,11.80
2012,07,14,06,47,11.80
2012,07,14,06,48,11.90
2012,07,14,06,49,11.90
2012,07,14,06,50,11.90
2012,07,14,06,51,12.00
2012,07,14,06,52,12.00
2012,07,14,06,53,12.10
2012,07,14,06,54,12.10
2012,07,14,06,55,12.10
2012,07,14,06,56,12.20
2012,07,14,06,57,12.20
2012,07,14,06,58,12.30
2012,07,14,06,59,12.30
2012,07,14,07,00,12.40
2012,07,14,07,01,12.40
2012,07,14,07,02,12.50
2012,07,14,07,03,12.50
2012,07,14,07,04,12.60
2012,07,14,07,05,12.60
2012,07,14,07,06,12.70
2012,07,14,07,07,12.70
2012,07,14,07,08,12.70
2012,07,14,07,09,12.70
2012,07,14,07,10,12.80
2012,07,14,07,11,12.80
2012,07,14,07,12,12.80
2012,07,14,07,13,12.90
2012,07,14,07,14,12.90
2012,07,14,07,15,12.80
2012,07,14,07,16,12.80
2012,07,14,07,17,12.80
2012,07,14,07,18,12.80
2012,07,14,07,19,12.80
2012,07,14,07,20,12.80
2012,07,14,07,21,12.80
2012,07,14,07,22,12.80
2012,07,14,07,23,12.80
2012,07,14,07,24,12.90
2012,07,14,07,25,13.00
2012,07,14,07,26,13.00
2012,07,14,07,27,13.00
2012,07,14,07,28,13.10
2012,07,14,07,29,13.10
2012,07,14,07,30,13.10
2012,07,14,07,31,13.10
2012,07,14,07,32,13.10
2012,07,14,07,33,13.10
2012,07,14,07,34,13.00
2012,07,14,07,35,13.00
2012,07,14,07,36,12.90
2012,07,14,07,37,12.90
2012,07,14,07,38,13.00
2012,07,14,07,39,13.00
2012,07,14,07,40,13.00
2012,07,14,07,41,13.00
2012,07,14,07,42,13.00
2012,07,14,07,43,13.00
2012,07,14,07,44,13.00
2012,07,14,07,45,13.10
2012,07,14,07,46,13.10
2012,07,14,07,47,13.10
2012,07,14,07,48,13.20
2012,07,14,07,49,13.20
2012,07,14,07,50,13.20
2012,07,14,07,51,13.20
2012,07,14,07,52,13.20
2012,07,14,07,53,13.20
2012,07,14,07,54,13.20
2012,07,14,07,55,13.20
2012,07,14,07,56,13.30
2012,07,14,07,57,13.30
2012,07,14,07,58,13.30
2012,07,14,07,59,13.30
2012,07,14,08,00,13.30
2012,07,14,08,01,13.30
2012,07,14,08,02,13.30
2012,07,14,08,03,13.30
2012,07,14,08,04,13.30
2012,07,14,08,05,13.30
2012,07,14,08,06,13.30
2012,07,14,08,07,13.30
2012,07,14,08,08,13.30
2012,07,14,08,09,13.30
2012,07,14,08,10,13.30
2012,07,14,08,11,13.30
2012,07,14,08,12,13.40
2012,07,14,08,13,13.40
2012,07,14,08,14,13.40
2012,07,14,08,15,13.40
2012,07,14,08,16,13.40
2012,07,14,08,17,13.40
2012,07,14,08,18,13.40
2012,07,14,08,19,13.40
2012,07,14,08,20,13.40
2012,07,14,08,21,13.30
2012,07,14,08,22,13.20
2012,07,14,08,23,13.20
2012,07,14,08,24,13.10
2012,07,14,08,25,13.10
2012,07,14,08,26,13.10
2012,07,14,08,27,13.10
2012,07,14,08,28,13.10
2012,07,14,08,29,13.10
2012,07,14,08,30,13.10
2012,07,14,08,31,13.10
2012,07,14,08,32,13.10
2012,07,14,08,33,13.10
2012,07,14,08,34,13.10
2012,07,14,08,35,13.10
2012,07,14,08,36,13.10
2012,07,14,08,37,13.10
2012,07,14,08,38,13.20
2012,07,14,08,39,13.20
2012,07,14,08,40,13.20
2012,07,14,08,41,13.30
2012,07,14,08,42,13.30
2012,07,14,08,43,13.30
2012,07,14,08,44,13.30
2012,07,14,08,45,13.30
2012,07,14,08,46,13.30
2012,07,14,08,47,13.30
2012,07,14,08,48,13.30
2012,07,14,08,49,13.30
2012,07,14,08,50,13.30
2012,07,14,08,51,13.40
2012,07,14,08,52,13.40
2012,07,14,08,53,13.40
2012,07,14,08,54,13.40
2012,07,14,08,55,13.50
2012,07,14,08,56,13.50
2012,07,14,08,57,13.40
2012,07,14,08,58,13.30
2012,07,14,08,59,13.20
2012,07,14,09,00,13.10
2012,07,14,09,01,13.10
2012,07,14,09,02,13.10
2012,07,14,09,03,13.00
2012,07,14,09,04,13.00
2012,07,14,09,05,12.90
2012,07,14,09,06,12.80
2012,07,14,09,07,12.60
2012,07,14,09,08,12.50
2012,07,14,09,09,12.40
2012,07,14,09,10,12.40
2012,07,14,09,11,12.30
2012,07,14,09,12,12.20
2012,07,14,09,13,12.20
2012,07,14,09,14,12.20
2012,07,14,09,15,12.20
2012,07,14,09,16,12.20
2012,07,14,09,17,12.20
2012,07,14,09,18,12.30
2012,07,14,09,19,12.30
2012,07,14,09,20,12.40
2012,07,14,09,21,12.50
2012,07,14,09,22,12.60
2012,07,14,09,23,12.60
2012,07,14,09,24,12.70
2012,07,14,09,25,12.80
2012,07,14,09,26,12.80
2012,07,14,09,27,12.80
2012,07,14,09,28,12.80
2012,07,14,09,29,12.80
2012,07,14,09,30,12.90
2012,07,14,09,31,13.00
2012,07,14,09,32,13.10
2012,07,14,09,33,13.10
2012,07,14,09,34,13.20
2012,07,14,09,35,13.20
2012,07,14,09,36,13.20
2012,07,14,09,37,13.20
2012,07,14,09,38,13.20
2012,07,14,09,39,13.20
2012,07,14,09,40,13.30
2012,07,14,09,41,13.30
2012,07,14,09,42,13.30
2012,07,14,09,43,13.20
2012,07,14,09,44,13.20
2012,07,14,09,45,13.20
2012,07,14,09,46,13.20
2012,07,14,09,47,13.20
2012,07,14,09,48,13.20
2012,07,14,09,49,13.30
2012,07,14,09,50,13.40
2012,07,14,09,51,13.40
2012,07,14,09,52,13.40
2012,07,14,09,53,13.40
2012,07,14,09,54,13.50
2012,07,14,09,55,13.60
2012,07,14,09,56,13.60
2012,07,14,09,57,13.70
2012,07,14,09,58,13.80
2012,07,14,09,59,14.00
2012,07,14,10,00,14.10
2012,07,14,10,01,14.10
2012,07,14,10,02,14.10
2012,07,14,10,03,14.10
2012,07,14,10,04,14.00
2012,07,14,10,05,13.90
2012,07,14,10,06,13.80
2012,07,14,10,07,13.80
2012,07,14,10,08,13.80
2012,07,14,10,09,13.80
2012,07,14,10,10,13.80
2012,07,14,10,11,13.90
2012,07,14,10,12,14.00
2012,07,14,10,13,14.00
2012,07,14,10,14,14.00
2012,07,14,10,15,14.10
2012,07,14,10,16,14.00
2012,07,14,10,17,14.00
2012,07,14,10,18,13.90
2012,07,14,10,19,14.00
2012,07,14,10,20,14.10
2012,07,14,10,21,14.10
2012,07,14,10,22,14.00
2012,07,14,10,23,14.00
2012,07,14,10,24,13.90
2012,07,14,10,25,13.90
2012,07,14,10,26,13.90
2012,07,14,10,27,13.90
2012,07,14,10,28,13.90
2012,07,14,10,29,13.90
2012,07,14,10,30,13.80
2012,07,14,10,31,13.80
2012,07,14,10,32,13.70
2012,07,14,10,33,13.60
2012,07,14,10,34,13.60
2012,07,14,10,35,13.60
2012,07,14,10,36,13.50
2012,07,14,10,37,13.50
2012,07,14,10,38,13.40
2012,07,14,10,39,13.30
2012,07,14,10,40,13.30
2012,07,14,10,41,13.20
2012,07,14,10,42,13.20
2012,07,14,10,43,13.20
2012,07,14,10,44,13.20
2012,07,14,10,45,13.30
2012,07,14,10,46,13.30
2012,07,14,10,47,13.30
2012,07,14,10,48,13.40
2012,07,14,10,49,13.50
2012,07,14,10,50,13.60
2012,07,14,10,51,13.60
2012,07,14,10,52,13.70
2012,07,14,10,53,13.70
2012,07,14,10,54,13.70
2012,07,14,10,55,13.70
2012,07,14,10,56,13.70
2012,07,14,10,57,13.70
2012,07,14,10,58,13.60
2012,07,14,10,59,13.50
2012,07,14,11,00,13.50
2012,07,14,11,01,13.50
2012,07,14,11,02,13.50
2012,07,14,11,03,13.60
2012,07,14,11,04,13.60
2012,07,14,11,05,13.60
2012,07,14,11,06,13.60
2012,07,14,11,07,13.60
2012,07,14,11,08,13.60
2012,07,14,11,09,13.50
2012,07,14,11,10,13.50
2012,07,14,11,11,13.50
2012,07,14,11,12,13.50
2012,07,14,11,13,13.50
2012,07,14,11,14,13.50
2012,07,14,11,15,13.50
2012,07,14,11,16,13.50
2012,07,14,11,17,13.40
2012,07,14,11,18,13.40
2012,07,14,11,19,13.40
2012,07,14,11,20,13.40
2012,07,14,11,21,13.40
2012,07,14,11,22,13.40
2012,07,14,11,23,13.50
2012,07,14,11,24,13.60
2012,07,14,11,25,13.60
2012,07,14,11,26,13.60
2012,07,14,11,27,13.70
2012,07,14,11,28,13.70
2012,07,14,11,29,13.80
2012,07,14,11,30,13.90
2012,07,14,11,31,14.00
2012,07,14,11,32,14.00
2012,07,14,11,33,14.10
2012,07,14,11,34,14.20
2012,07,14,11,35,14.20
2012,07,14,11,36,14.30
2012,07,14,11,37,14.30
2012,07,14,11,38,14.30
2012,07,14,11,39,14.30
2012,07,14,11,40,14.30
2012,07,14,11,41,14.30
2012,07,14,11,42,14.20
2012,07,14,11,43,14.10
2012,07,14,11,44,14.00
2012,07,14,11,45,14.00
2012,07,14,11,46,13.90
2012,07,14,11,47,13.80
2012,07,14,11,48,13.80
2012,07,14,11,49,13.90
2012,07,14,11,50,13.80
2012,07,14,11,51,13.80
2012,07,14,11,52,13.90
2012,07,14,11,53,13.80
2012,07,14,11,54,13.80
2012,07,14,11,55,13.80
2012,07,14,11,56,13.70
2012,07,14,11,57,13.70
2012,07,14,11,58,13.70
2012,07,14,11,59,13.70
2012,07,14,12,00,13.80
2012,07,14,12,01,13.80
2012,07,14,12,02,13.90
2012,07,14,12,03,14.00
2012,07,14,12,04,14.00
2012,07,14,12,05,14.10
2012,07,14,12,06,14.10
2012,07,14,12,07,14.20
2012,07,14,12,08,14.30
2012,07,14,12,09,14.30
2012,07,14,12,10,14.40
2012,07,14,12,11,14.60
2012,07,14,12,12,14.70
2012,07,14,12,13,14.80
2012,07,14,12,14,14.80
2012,07,14,12,15,14.90
2012,07,14,12,16,15.00
2012,07,14,12,17,15.00
2012,07,14,12,18,15.00
2012,07,14,12,19,15.00
2012,07,14,12,20,15.00
2012,07,14,12,21,15.00
2012,07,14,12,22,15.00
2012,07,14,12,23,15.00
2012,07,14,12,24,15.10
2012,07,14,12,25,15.10
2012,07,14,12,26,15.20
2012,07,14,12,27,15.30
2012,07,14,12,28,15.40
2012,07,14,12,29,15.50
2012,07,14,12,30,15.60
2012,07,14,12,31,15.80
2012,07,14,12,32,16.00
2012,07,14,12,33,16.20
2012,07,14,12,34,16.40
2012,07,14,12,35,16.70
2012,07,14,12,36,16.90
2012,07,14,12,37,17.20
2012,07,14,12,38,17.40
2012,07,14,12,39,17.60
2012,07,14,12,40,17.80
2012,07,14,12,41,17.90
2012,07,14,12,42,18.00
2012,07,14,12,43,18.10
2012,07,14,12,44,18.20
2012,07,14,12,45,18.20
2012,07,14,12,46,18.20
2012,07,14,12,47,18.30
2012,07,14,12,48,18.30
2012,07,14,12,49,18.40
2012,07,14,12,50,18.40
2012,07,14,12,51,18.50
2012,07,14,12,52,18.50
2012,07,14,12,53,18.60
2012,07,14,12,54,18.70
2012,07,14,12,55,18.70
2012,07,14,12,56,18.70
2012,07,14,12,57,18.70
2012,07,14,12,58,18.70
2012,07,14,12,59,18.70
2012,07,14,13,00,18.70
2012,07,14,13,01,18.60
2012,07,14,13,02,18.60
2012,07,14,13,03,18.60
2012,07,14,13,04,18.50
2012,07,14,13,05,18.40
2012,07,14,13,06,18.40
2012,07,14,13,07,18.30
2012,07,14,13,08,18.20
2012,07,14,13,09,18.20
2012,07,14,13,10,18.20
2012,07,14,13,11,18.20
2012,07,14,13,12,18.20
2012,07,14,13,13,18.20
2012,07,14,13,14,18.10
2012,07,14,13,15,18.10
2012,07,14,13,16,18.10
2012,07,14,13,17,18.10
2012,07,14,13,18,18.10
2012,07,14,13,19,18.20
2012,07,14,13,20,18.30
2012,07,14,13,21,18.50
2012,07,14,13,22,18.60
2012,07,14,13,23,18.70
2012,07,14,13,24,18.70
2012,07,14,13,25,18.70
2012,07,14,13,26,18.80
2012,07,14,13,27,18.80
2012,07,14,13,28,18.90
2012,07,14,13,29,19.10
2012,07,14,13,30,19.20
2012,07,14,13,31,19.40
2012,07,14,13,32,19.50
2012,07,14,13,33,19.60
2012,07,14,13,34,19.70
2012,07,14,13,35,19.80
2012,07,14,13,36,19.80
2012,07,14,13,37,19.90
2012,07,14,13,38,19.90
2012,07,14,13,39,20.00
2012,07,14,13,40,19.90
2012,07,14,13,41,19.90
2012,07,14,13,42,19.90
2012,07,14,13,43,20.00
2012,07,14,13,44,20.10
2012,07,14,13,45,20.20
2012,07,14,13,46,20.40
2012,07,14,13,47,20.50
2012,07,14,13,48,20.60
2012,07,14,13,49,20.80
2012,07,14,13,50,20.80
2012,07,14,13,51,20.90
2012,07,14,13,52,21.00
2012,07,14,13,53,21.20
2012,07,14,13,54,21.30
2012,07,14,13,55,21.30
2012,07,14,13,56,21.20
2012,07,14,13,57,21.20
2012,07,14,13,58,21.10
2012,07,14,13,59,21.10
2012,07,14,14,00,21.20
2012,07,14,14,01,21.30
2012,07,14,14,02,21.50
2012,07,14,14,03,21.60
2012,07,14,14,04,21.60
2012,07,14,14,05,21.50
2012,07,14,14,06,21.40
2012,07,14,14,07,21.20
2012,07,14,14,08,21.20
2012,07,14,14,09,21.20
2012,07,14,14,10,21.20
2012,07,14,14,11,21.20
2012,07,14,14,12,21.10
2012,07,14,14,13,21.00
2012,07,14,14,14,20.90
2012,07,14,14,15,21.00
2012,07,14,14,16,21.10
2012,07,14,14,17,21.30
2012,07,14,14,18,21.40
2012,07,14,14,19,21.50
2012,07,14,14,20,21.60
2012,07,14,14,21,21.80
2012,07,14,14,22,21.80
2012,07,14,14,23,21.90
2012,07,14,14,24,21.90
2012,07,14,14,25,21.60
2012,07,14,14,26,21.40
2012,07,14,14,27,21.30
2012,07,14,14,28,21.20
2012,07,14,14,29,21.20
2012,07,14,14,30,21.10
2012,07,14,14,31,21.10
2012,07,14,14,32,21.00
2012,07,14,14,33,21.00
2012,07,14,14,34,21.20
2012,07,14,14,35,21.30
2012,07,14,14,36,21.50
2012,07,14,14,37,21.70
2012,07,14,14,38,21.80
2012,07,14,14,39,21.70
2012,07,14,14,40,21.60
2012,07,14,14,41,21.50
2012,07,14,14,42,21.40
2012,07,14,14,43,21.20
2012,07,14,14,44,21.10
2012,07,14,14,45,21.00
2012,07,14,14,46,21.00
2012,07,14,14,47,21.10
2012,07,14,14,48,21.10
2012,07,14,14,49,21.20
2012,07,14,14,50,21.30
2012,07,14,14,51,21.50
2012,07,14,14,52,21.60
2012,07,14,14,53,21.80
2012,07,14,14,54,21.90
2012,07,14,14,55,21.80
2012,07,14,14,56,21.90
2012,07,14,14,57,22.10
2012,07,14,14,58,22.20
2012,07,14,14,59,22.40
2012,07,14,15,00,22.40
2012,07,14,15,01,22.40
2012,07,14,15,02,22.50
2012,07,14,15,03,22.60
2012,07,14,15,04,22.70
2012,07,14,15,05,22.70
2012,07,14,15,06,22.80
2012,07,14,15,07,22.80
2012,07,14,15,08,22.80
2012,07,14,15,09,22.80
2012,07,14,15,10,22.90
2012,07,14,15,11,22.90
2012,07,14,15,12,23.00
2012,07,14,15,13,22.80
2012,07,14,15,14,22.70
2012,07,14,15,15,22.50
2012,07,14,15,16,22.30
2012,07,14,15,17,22.20
2012,07,14,15,18,22.10
2012,07,14,15,19,22.10
2012,07,14,15,20,22.20
2012,07,14,15,21,22.20
2012,07,14,15,22,22.10
2012,07,14,15,23,22.10
2012,07,14,15,24,22.10
2012,07,14,15,25,22.10
2012,07,14,15,26,22.20
2012,07,14,15,27,22.40
2012,07,14,15,28,22.60
2012,07,14,15,29,22.70
2012,07,14,15,30,22.80
2012,07,14,15,31,22.80
2012,07,14,15,32,22.70
2012,07,14,15,33,22.60
2012,07,14,15,34,22.40
2012,07,14,15,35,22.40
2012,07,14,15,36,22.20
2012,07,14,15,37,22.00
2012,07,14,15,38,21.80
2012,07,14,15,39,21.70
2012,07,14,15,40,21.60
2012,07,14,15,41,21.40
2012,07,14,15,42,21.40
2012,07,14,15,43,21.50
2012,07,14,15,44,21.50
2012,07,14,15,45,21.70
2012,07,14,15,46,21.80
2012,07,14,15,47,21.90
2012,07,14,15,48,21.90
2012,07,14,15,49,22.00
2012,07,14,15,50,22.00
2012,07,14,15,51,22.10
2012,07,14,15,52,22.10
2012,07,14,15,53,22.20
2012,07,14,15,54,22.20
2012,07,14,15,55,22.30
2012,07,14,15,56,22.30
2012,07,14,15,57,22.40
2012,07,14,15,58,22.40
2012,07,14,15,59,22.40
2012,07,14,16,00,22.30
2012,07,14,16,01,22.30
2012,07,14,16,02,22.30
2012,07,14,16,03,22.30
2012,07,14,16,04,22.30
2012,07,14,16,05,22.20
2012,07,14,16,06,22.20
2012,07,14,16,07,22.10
2012,07,14,16,08,22.10
2012,07,14,16,09,22.00
2012,07,14,16,10,22.00
2012,07,14,16,11,22.00
2012,07,14,16,12,22.00
2012,07,14,16,13,22.10
2012,07,14,16,14,22.10
2012,07,14,16,15,22.20
2012,07,14,16,16,22.20
2012,07,14,16,17,22.20
2012,07,14,16,18,22.20
2012,07,14,16,19,22.20
2012,07,14,16,20,22.20
2012,07,14,16,21,22.30
2012,07,14,16,22,22.30
2012,07,14,16,23,22.30
2012,07,14,16,24,22.40
2012,07,14,16,25,22.40
2012,07,14,16,26,22.40
2012,07,14,16,27,22.40
2012,07,14,16,28,22.40
2012,07,14,16,29,21.90
2012,07,14,16,30,21.50
2012,07,14,16,31,21.50
2012,07,14,16,32,21.40
2012,07,14,16,33,21.40
2012,07,14,16,34,21.50
2012,07,14,16,35,21.50
2012,07,14,16,36,21.60
2012,07,14,16,37,21.60
2012,07,14,16,38,21.60
2012,07,14,16,39,21.50
2012,07,14,16,40,21.30
2012,07,14,16,41,21.10
2012,07,14,16,42,21.00
2012,07,14,16,43,20.90
2012,07,14,16,44,20.70
2012,07,14,16,45,20.70
2012,07,14,16,46,20.70
2012,07,14,16,47,20.70
2012,07,14,16,48,20.70
2012,07,14,16,49,20.60
2012,07,14,16,50,20.60
2012,07,14,16,51,20.50
2012,07,14,16,52,20.40
2012,07,14,16,53,20.30
2012,07,14,16,54,20.20
2012,07,14,16,55,20.20
2012,07,14,16,56,20.10
2012,07,14,16,57,20.00
2012,07,14,16,58,19.90
2012,07,14,16,59,19.90
2012,07,14,17,00,19.90
2012,07,14,17,01,19.80
2012,07,14,17,02,19.80
2012,07,14,17,03,19.80
2012,07,14,17,04,19.70
2012,07,14,17,05,19.80
2012,07,14,17,06,19.80
2012,07,14,17,07,19.90
2012,07,14,17,08,19.80
2012,07,14,17,09,19.70
2012,07,14,17,10,19.50
2012,07,14,17,11,19.20
2012,07,14,17,12,19.00
2012,07,14,17,13,18.90
2012,07,14,17,14,18.80
2012,07,14,17,15,18.90
2012,07,14,17,16,18.90
2012,07,14,17,17,18.90
2012,07,14,17,18,18.90
2012,07,14,17,19,19.00